| time (UTC) | temp C | wind direction | speed KPH | gust KPH | rain 1hr cm | rain 24hr cm | rain mn cm | humidity % | barometer mb |
| 20260831014515 | 10 | 213 | 0.0 | 0.0 | 0.00 | 0.15 | 0.00 | 91 | 1009.0 |
| 20260831013010 | 10 | 213 | 0.0 | 0.0 | 0.00 | 0.15 | 0.00 | 90 | 1009.1 |
| 20260831011509 | 11 | 213 | 0.0 | 0.0 | 0.00 | 0.15 | 0.00 | 91 | 1008.9 |
| 20260831010007 | 10 | 213 | 0.0 | 0.0 | 0.00 | 0.15 | 0.00 | 90 | 1008.9 |
| 20260831004506 | 11 | 213 | 0.0 | 0.0 | 0.00 | 0.18 | 0.00 | 90 | 1009.1 |
| 20260831003003 | 11 | 213 | 0.0 | 0.0 | 0.00 | 0.18 | 0.00 | 89 | 1009.2 |
| 20260831001600 | 12 | 213 | 0.0 | 0.0 | 0.00 | 0.18 | 0.00 | 89 | 1009.2 |
| 20260830234601 | 12 | 213 | 0.0 | 0.0 | 0.00 | 0.18 | 0.00 | 89 | 1009.0 |
| 20260830233050 | 13 | 213 | 0.0 | 0.0 | 0.00 | 0.18 | 0.00 | 90 | 1009.0 |
| 20260830231553 | 13 | 213 | 0.0 | 4.8 | 0.00 | 0.18 | 0.00 | 90 | 1009.2 |
| 20260830230050 | 13 | 213 | 1.6 | 3.2 | 0.00 | 0.18 | 0.00 | 89 | 1009.0 |
| 20260830224548 | 13 | 213 | 0.0 | 0.0 | 0.00 | 0.18 | 0.00 | 88 | 1008.8 |
| 20260830223043 | 14 | 213 | 0.0 | 0.0 | 0.00 | 0.18 | 0.00 | 89 | 1008.9 |
| 20260830221539 | 14 | 213 | 0.0 | 1.6 | 0.00 | 0.18 | 0.00 | 88 | 1008.9 |
| 20260830220039 | 15 | 212 | 1.6 | 6.4 | 0.00 | 0.18 | 0.00 | 87 | 1009.0 |
| 20260830214536 | 15 | 220 | 1.6 | 6.4 | 0.00 | 0.18 | 0.18 | 86 | 1008.9 |
| 20260830213048 | 15 | 228 | 1.6 | 6.4 | 0.00 | 0.18 | 0.18 | 85 | 1008.9 |
| 20260830211534 | 16 | 244 | 1.6 | 12.9 | 0.00 | 0.18 | 0.18 | 85 | 1008.7 |
| 20260830210028 | 16 | 225 | 3.2 | 8.0 | 0.00 | 0.18 | 0.18 | 85 | 1008.6 |
| 20260830204519 | 16 | 232 | 3.2 | 8.0 | 0.00 | 0.18 | 0.18 | 86 | 1008.6 |
| 20260830203100 | 16 | 242 | 1.6 | 8.0 | 0.00 | 0.18 | 0.18 | 87 | 1008.6 |
| 20260830201540 | 16 | 238 | 0.0 | 0.0 | 0.00 | 0.18 | 0.18 | 86 | 1008.6 |
| 20260830200138 | 16 | 238 | 0.0 | 0.0 | 0.00 | 0.18 | 0.18 | 86 | 1008.5 |
| 20260830194556 | 16 | 261 | 0.0 | 4.8 | 0.00 | 0.18 | 0.18 | 85 | 1008.3 |
| 20260830193157 | 16 | 242 | 3.2 | 6.4 | 0.00 | 0.18 | 0.18 | 85 | 1008.3 |
| 20260830191611 | 16 | 238 | 1.6 | 4.8 | 0.00 | 0.18 | 0.18 | 84 | 1008.1 |
| 20260830190042 | 16 | 247 | 0.0 | 6.4 | 0.00 | 0.18 | 0.18 | 83 | 1007.8 |
| 20260830184516 | 17 | 254 | 0.0 | 6.4 | 0.00 | 0.18 | 0.18 | 83 | 1007.6 |
| 20260830183003 | 17 | 246 | 3.2 | 9.7 | 0.00 | 0.18 | 0.18 | 84 | 1007.5 |
| 20260830181558 | 17 | 261 | 1.6 | 11.3 | 0.00 | 0.18 | 0.18 | 84 | 1007.2 |
| 20260830180016 | 17 | 315 | 4.8 | 12.9 | 0.00 | 0.18 | 0.18 | 84 | 1006.9 |
| 20260830174618 | 17 | 225 | 3.2 | 16.1 | 0.00 | 0.18 | 0.18 | 86 | 1006.6 |
| 20260830171538 | 18 | 215 | 3.2 | 14.5 | 0.00 | 0.18 | 0.18 | 86 | 1006.2 |
| 20260830170033 | 18 | 261 | 1.6 | 14.5 | 0.00 | 0.18 | 0.18 | 85 | 1005.9 |
| 20260830164643 | 18 | 232 | 3.2 | 19.3 | 0.00 | 0.18 | 0.18 | 84 | 1005.7 |
| 20260830163037 | 18 | 247 | 4.8 | 17.7 | 0.00 | 0.18 | 0.18 | 84 | 1005.1 |
| 20260830161636 | 19 | 235 | 6.4 | 20.9 | 0.00 | 0.18 | 0.18 | 84 | 1004.7 |
| 20260830160105 | 20 | 263 | 8.0 | 27.4 | 0.00 | 0.18 | 0.18 | 82 | 1004.4 |
| 20260830154652 | 20 | 248 | 6.4 | 19.3 | 0.00 | 0.18 | 0.18 | 84 | 1004.2 |
| 20260830153051 | 20 | 200 | 3.2 | 19.3 | 0.00 | 0.18 | 0.18 | 86 | 1003.9 |
| 20260830151513 | 20 | 240 | 6.4 | 19.3 | 0.00 | 0.18 | 0.18 | 85 | 1003.6 |
| 20260830150116 | 19 | 234 | 8.0 | 20.9 | 0.00 | 0.18 | 0.18 | 87 | 1003.5 |
| 20260830144653 | 20 | 229 | 9.7 | 22.5 | 0.00 | 0.18 | 0.18 | 86 | 1003.0 |
| 20260830143047 | 20 | 196 | 11.3 | 20.9 | 0.03 | 0.18 | 0.18 | 87 | 1002.7 |
| 20260830141542 | 20 | 208 | 11.3 | 25.7 | 0.03 | 0.18 | 0.18 | 88 | 1002.7 |
| 20260830140146 | 18 | 249 | 11.3 | 29.0 | 0.03 | 0.18 | 0.18 | 89 | 1002.6 |
| 20260830134542 | 19 | 206 | 9.7 | 19.3 | 0.00 | 0.15 | 0.15 | 87 | 1002.5 |
| 20260830133027 | 18 | 221 | 16.1 | 27.4 | 0.00 | 0.15 | 0.15 | 87 | 1002.5 |
| 20260830131654 | 18 | 205 | 12.9 | 27.4 | 0.00 | 0.15 | 0.15 | 87 | 1002.5 |
| 20260830130045 | 18 | 184 | 12.9 | 30.6 | 0.00 | 0.15 | 0.15 | 88 | 1002.4 |
| 20260830124535 | 18 | 197 | 12.9 | 25.7 | 0.00 | 0.15 | 0.15 | 89 | 1002.4 |
| 20260830123038 | 18 | 178 | 12.9 | 25.7 | 0.00 | 0.15 | 0.15 | 89 | 1002.2 |
| 20260830121635 | 18 | 219 | 11.3 | 25.7 | 0.03 | 0.15 | 0.15 | 90 | 1002.3 |
| 20260830120048 | 18 | 189 | 11.3 | 24.1 | 0.03 | 0.15 | 0.15 | 90 | 1002.4 |
| 20260830114645 | 18 | 196 | 11.3 | 32.2 | 0.05 | 0.23 | 0.15 | 90 | 1002.4 |
| 20260830113052 | 18 | 205 | 11.3 | 19.3 | 0.05 | 0.23 | 0.15 | 90 | 1002.3 |
| 20260830111544 | 18 | 213 | 11.3 | 22.5 | 0.03 | 0.20 | 0.15 | 90 | 1002.2 |
| 20260830110137 | 18 | 193 | 12.9 | 30.6 | 0.03 | 0.20 | 0.15 | 89 | 1002.3 |
| 20260830104546 | 18 | 172 | 12.9 | 25.7 | 0.03 | 0.18 | 0.13 | 90 | 1002.4 |
| 20260830103008 | 17 | 201 | 11.3 | 25.7 | 0.05 | 0.18 | 0.13 | 91 | 1002.2 |
| 20260830101606 | 17 | 184 | 12.9 | 24.1 | 0.05 | 0.18 | 0.13 | 91 | 1002.2 |
| 20260830100002 | 17 | 182 | 12.9 | 22.5 | 0.05 | 0.18 | 0.13 | 91 | 1002.2 |
| 20260830094557 | 17 | 198 | 8.0 | 16.1 | 0.05 | 0.15 | 0.10 | 91 | 1002.2 |
| 20260830093037 | 18 | 194 | 8.0 | 24.1 | 0.03 | 0.15 | 0.08 | 90 | 1002.3 |
| 20260830091536 | 18 | 201 | 9.7 | 20.9 | 0.00 | 0.13 | 0.05 | 89 | 1002.4 |
| 20260830090053 | 18 | 178 | 8.0 | 20.9 | 0.00 | 0.13 | 0.05 | 87 | 1002.3 |
| 20260830084632 | 18 | 175 | 9.7 | 20.9 | 0.00 | 0.13 | 0.05 | 88 | 1002.4 |
| 20260830083039 | 18 | 190 | 9.7 | 16.1 | 0.00 | 0.13 | 0.05 | 88 | 1002.4 |
| 20260830081526 | 18 | 204 | 8.0 | 19.3 | 0.00 | 0.13 | 0.05 | 89 | 1002.5 |
| 20260830080023 | 17 | 169 | 4.8 | 17.7 | 0.00 | 0.13 | 0.05 | 90 | 1002.7 |
| 20260830074638 | 17 | 180 | 8.0 | 16.1 | 0.00 | 0.13 | 0.05 | 88 | 1002.8 |
| 20260830073019 | 17 | 195 | 8.0 | 17.7 | 0.00 | 0.13 | 0.05 | 89 | 1002.7 |
| 20260830071519 | 17 | 191 | 8.0 | 22.5 | 0.00 | 0.13 | 0.05 | 89 | 1002.9 |
| 20260830070016 | 17 | 198 | 6.4 | 19.3 | 0.00 | 0.13 | 0.05 | 89 | 1002.9 |
| 20260830064513 | 17 | 175 | 9.7 | 19.3 | 0.00 | 0.13 | 0.05 | 90 | 1002.9 |
| 20260830063012 | 17 | 169 | 8.0 | 17.7 | 0.00 | 0.13 | 0.05 | 90 | 1003.0 |
| 20260830061514 | 17 | 167 | 4.8 | 16.1 | 0.00 | 0.13 | 0.05 | 91 | 1002.9 |
| 20260830060008 | 16 | 202 | 4.8 | 12.9 | 0.00 | 0.13 | 0.05 | 91 | 1003.0 |
| 20260830054505 | 16 | 190 | 6.4 | 11.3 | 0.03 | 0.13 | 0.05 | 91 | 1003.2 |
| 20260830053004 | 16 | 176 | 4.8 | 9.7 | 0.03 | 0.13 | 0.05 | 91 | 1003.3 |
| 20260830051501 | 16 | 157 | 4.8 | 9.7 | 0.03 | 0.13 | 0.05 | 91 | 1003.4 |
| 20260830050059 | 16 | 171 | 1.6 | 9.7 | 0.03 | 0.13 | 0.05 | 91 | 1003.5 |
| 20260830044613 | 16 | 170 | 1.6 | 4.8 | 0.03 | 0.10 | 0.05 | 91 | 1003.6 |
| 20260830043057 | 16 | 178 | 1.6 | 6.4 | 0.03 | 0.10 | 0.05 | 91 | 1003.8 |
| 20260830041633 | 16 | 164 | 0.0 | 8.0 | 0.03 | 0.10 | 0.05 | 91 | 1004.0 |
| 20260830040059 | 16 | 193 | 3.2 | 9.7 | 0.03 | 0.10 | 0.05 | 91 | 1004.1 |
| 20260830034558 | 16 | 169 | 3.2 | 8.0 | 0.00 | 0.08 | 0.03 | 91 | 1004.3 |
| 20260830033049 | 15 | 156 | 1.6 | 4.8 | 0.00 | 0.08 | 0.03 | 92 | 1004.4 |
| 20260830031547 | 15 | 171 | 0.0 | 3.2 | 0.00 | 0.08 | 0.03 | 91 | 1004.6 |
| 20260830030111 | 15 | 182 | 1.6 | 3.2 | 0.00 | 0.08 | 0.03 | 91 | 1004.7 |
| 20260830024543 | 15 | 188 | 0.0 | 0.0 | 0.00 | 0.08 | 0.03 | 92 | 1005.0 |
| 20260830023042 | 15 | 188 | 0.0 | 0.0 | 0.00 | 0.08 | 0.03 | 91 | 1005.1 |
| 20260830021542 | 15 | 188 | 0.0 | 0.0 | 0.00 | 0.08 | 0.03 | 91 | 1005.2 |
| 20260830020040 | 16 | 188 | 0.0 | 0.0 | 0.00 | 0.08 | 0.03 | 91 | 1005.2 |